Change the Weather History Date:

Thursday, May 9, 2013

  Actual Average Record
Temperature  
Mean Temperature 67 °F 64 °F  
Max Temperature 75 °F 74 °F 90 °F (1956)
Min Temperature 58 °F 54 °F 33 °F (1923)
Degree Days  
Heating Degree Days 0 3  
Month to date heating degree days 98 36  
Since 1 July heating degree days 4279 4438  
Cooling Degree Days 2 2  
Month to date cooling degree days 4 16  
Year to date cooling degree days 19 47  
Growing Degree Days 16 (Base 50)    
Moisture  
Dew Point 57 °F    
Average Humidity 72    
Maximum Humidity 90    
Minimum Humidity 54    
Precipitation  
Precipitation 0.30 in 0.16 in 1.90 in (1993)
Month to date precipitation 1.64 1.44  
Year to date precipitation 12.82 12.04  
Sea Level Pressure  
Sea Level Pressure 29.90 in    
Wind  
Wind Speed 8 mph (WSW)    
Max Wind Speed 21 mph    
Max Gust Speed 30 mph    
Visibility 9 miles    
Events Rain , Thunderstorm    
T = Trace of Precipitation, MM = Missing Value Source: NWS Daily Summary

Daily Weather History Graph

Daily Weather History Graph

Search for Another Location

Airport or City:

Trip Planner

Search our weather history database for the weather conditions in past years. The results will help you decide how hot, cold, wet, or windy it might be!

Date:

Astronomy

May. 09, 2013 Rise Set
Actual Time 6:17 AM CDT 8:19 PM CDT
Civil Twilight 5:48 AM CDT 8:48 PM CDT
Nautical Twilight 5:13 AM CDT 9:23 PM CDT
Astronomical Twilight 4:35 AM CDT 10:02 PM CDT
Moon 6:02 AM CDT (5/9) 8:15 PM CDT (5/9)
Length of Visible Light 14h 59m
Length of Day
14h 02m
Waning Crescent, 0% of the Moon is Illuminated
May 9
Waning Crescent
May 9
New
May 17
First Quarter
May 24
Full
May 31
Last Quarter

Hourly Weather History & Observations

Time (CDT) Temp. Dew Point Humidity Pressure Visibility Wind Dir Wind Speed Gust Speed Precip Events Conditions
12:52 AM 66.9 °F 57.0 °F 70% 29.88 in 10.0 mi South 11.5 mph - N/A   Clear
1:52 AM 64.9 °F 55.9 °F 73% 29.87 in 10.0 mi South 11.5 mph - N/A   Mostly Cloudy
2:52 AM 64.0 °F 55.9 °F 75% 29.88 in 10.0 mi WNW 6.9 mph - 0.00 in   Overcast
3:52 AM 61.0 °F 55.0 °F 81% 29.89 in 10.0 mi Calm Calm - N/A   Overcast
4:52 AM 60.1 °F 55.9 °F 86% 29.88 in 10.0 mi WNW 8.1 mph - N/A   Scattered Clouds
5:26 AM 60.8 °F 55.4 °F 82% 29.93 in 10.0 mi WSW 6.9 mph - 0.00 in Rain , Thunderstorm Light Rain
5:41 AM 60.8 °F 57.2 °F 88% 29.93 in 3.0 mi WSW 6.9 mph - 0.05 in Rain , Thunderstorm Thunderstorms and Rain
5:52 AM 59.0 °F 57.0 °F 93% 29.91 in 3.0 mi West 8.1 mph - 0.09 in Rain , Thunderstorm Thunderstorms and Rain
6:23 AM 57.2 °F 57.2 °F 100% 29.92 in 5.0 mi SW 6.9 mph - 0.12 in Rain , Thunderstorm Light Rain
6:44 AM 57.2 °F 57.2 °F 100% 29.91 in 6.0 mi SSE 4.6 mph - 0.15 in Rain Rain
6:52 AM 57.9 °F 55.9 °F 93% 29.88 in 7.0 mi SSE 4.6 mph - 0.16 in Rain Light Rain
7:52 AM 59.0 °F 57.0 °F 93% 29.81 in 10.0 mi SE 11.5 mph - 0.05 in   Partly Cloudy
8:10 AM 60.8 °F 55.4 °F 82% 29.91 in 10.0 mi NW 12.7 mph 29.9 mph N/A   Partly Cloudy
8:52 AM 61.0 °F 57.0 °F 87% 29.91 in 10.0 mi West 10.4 mph - N/A   Partly Cloudy
9:52 AM 66.0 °F 57.0 °F 73% 29.91 in 10.0 mi West 8.1 mph - N/A   Mostly Cloudy
10:52 AM 66.9 °F 59.0 °F 76% 29.93 in 10.0 mi South 12.7 mph - N/A   Overcast
11:52 AM 70.0 °F 60.1 °F 71% 29.93 in 10.0 mi SSW 10.4 mph - N/A   Mostly Cloudy
12:52 PM 71.6 °F 59.0 °F 64% 29.95 in 10.0 mi SW 10.4 mph - N/A   Scattered Clouds
1:52 PM 72.0 °F 57.9 °F 61% 29.90 in 10.0 mi WSW 10.4 mph - N/A   Scattered Clouds
2:52 PM 73.4 °F 57.2 °F 57% 29.93 in 10.0 mi SW 12.7 mph 18.4 mph N/A   Scattered Clouds
3:52 PM 73.0 °F 59.0 °F 61% 29.92 in 10.0 mi SSW 11.5 mph - N/A   Overcast
4:52 PM 75.0 °F 57.9 °F 55% 29.89 in 10.0 mi SW 9.2 mph - N/A   Clear
5:52 PM 73.9 °F 57.9 °F 57% 29.89 in 10.0 mi SW 10.4 mph - N/A   Partly Cloudy
6:52 PM 73.4 °F 59.0 °F 61% 29.88 in 10.0 mi West 9.2 mph - N/A   Clear
7:52 PM 70.0 °F 57.9 °F 65% 29.87 in 10.0 mi WNW 5.8 mph - N/A   Clear
8:52 PM 66.2 °F 57.2 °F 73% 29.92 in 10.0 mi NNW 4.6 mph - N/A   Clear
9:52 PM 64.9 °F 57.9 °F 78% 29.91 in 10.0 mi NNW 3.5 mph - N/A   Clear
10:52 PM 63.0 °F 57.0 °F 81% 29.94 in 10.0 mi NNW 5.8 mph - N/A   Clear
11:52 PM 62.6 °F 55.4 °F 77% 29.96 in 10.0 mi NW 5.8 mph - N/A   Clear